BADR-7 (ARABSAT-6B)

Last updated on Thu Oct 30 2025 00:02:50 GMT+0000 (Coordinated Universal Time)

1 41029U 15065B 25302.47610441 .00000155 00000+0 00000+0 0 9991 2 41029 0.0238 224.6983 0006718 9.8880 0.8877 1.00272174 36452
UTC large
Height (km)
Speed (km/s)
/
Latitude / Longitude
Inclination (degrees)
Orbital Period (minutes)
Azimuth
Elevation
Range (km)
Doppler Factor

Next 0 passes for location: London (51.5072 / 0.1276)

Sorry there are no passes over London.